< < Back
Terminal Aerodrome Forecast


Current Version              Previous Versions:   1  2  3  4  5  6  7  8  9  

Terminal Aerodrome Forecast

914
FTUS44 KMRX 161720
TAFTYS
TAF
KTYS 161720Z 1618/1718 02012KT P6SM SKC
     FM170000 00000KT P6SM SKC
     FM171400 VRB03KT P6SM SCT250=



Latest METAR

772
SAUS80 KWBC 171000 RRA
MTRTYS
METAR KTYS 170953Z 04003KT 10SM CLR 03/00 A3035 RMK AO2 SLP278
T00280000


USA.gov is the U.S. government's official web portal to all federal, state and local government web resources and services.